Weather History for K1M4 - March, 2014

Change the Weather History Date:

Sunday, March 23, 2014

  Actual Average (KJFX) Record (KJFX)
Temperature  
Mean Temperature 46 °F -  
Max Temperature 54 °F 65 °F 83 °F (1975)
Min Temperature 37 °F 37 °F 22 °F (1986)
Degree Days  
Heating Degree Days 19    
Moisture  
Dew Point 37 °F    
Average Humidity 74    
Maximum Humidity 97    
Minimum Humidity 42    
Precipitation  
Precipitation 0.18 in - - ()
Sea Level Pressure  
Sea Level Pressure 30.18 in    
Wind  
Wind Speed 9 mph (North)    
Max Wind Speed 17 mph    
Max Gust Speed 24 mph    
Visibility 7 miles    
Events Rain    
Averages and records for this station are not official NWS values.
T = Trace of Precipitation, MM = Missing Value Source: NWS Daily Summary

Daily Weather History Graph

Daily Weather History Graph

Search for Another Location

Airport or City:

Trip Planner

Search our weather history database for the weather conditions in past years. The results will help you decide how hot, cold, wet, or windy it might be!

Date:

Astronomy

Mar. 23, 2014 Rise Set
Actual Time 6:49 AM CDT 7:04 PM CDT
Civil Twilight 6:24 AM CDT 7:29 PM CDT
Nautical Twilight 5:55 AM CDT 7:58 PM CDT
Astronomical Twilight 5:25 AM CDT 8:28 PM CDT
Moon 1:08 AM CDT (3/23) 11:43 AM CDT (3/23)
Length of Visible Light 13h 04m
Length of Day
12h 14m
Waning Gibbous, 54% of the Moon is Illuminated
Mar 23
Waning Gibbous
Mar 23
Last Quarter
Mar 30
New
Apr 7
First Quarter
Apr 15
Full

Hourly Weather History & Observations

Time (CDT) Temp. Windchill Dew Point Humidity Pressure Visibility Wind Dir Wind Speed Gust Speed Precip Events Conditions
12:56 AM 54.0 °F - 41.0 °F 62% 30.09 in 10.0 mi North 6.9 mph - N/A   Partly Cloudy
1:56 AM 54.0 °F - 37.9 °F 55% 30.10 in 10.0 mi North 9.2 mph 18.4 mph N/A   Mostly Cloudy
2:56 AM 47.8 °F - 37.9 °F 69% 30.09 in 10.0 mi NNE 10.4 mph 18.4 mph N/A   Partly Cloudy
3:56 AM 43.9 °F 39.3 °F 39.9 °F 86% 30.11 in 3.0 mi North 8.1 mph 21.9 mph 0.01 in Rain Heavy Rain
4:22 AM 42.8 °F 37.0 °F 41.0 °F 93% 30.10 in 1.8 mi North 10.4 mph - 0.05 in Rain Heavy Rain
4:30 AM 42.8 °F 36.6 °F 41.0 °F 93% 30.10 in 1.2 mi North 11.5 mph 17.3 mph 0.11 in Rain Heavy Rain
4:39 AM 42.8 °F 37.0 °F 41.0 °F 93% 30.07 in 2.0 mi NE 10.4 mph 17.3 mph 0.13 in Rain Heavy Rain
4:47 AM 42.8 °F 37.5 °F 41.0 °F 93% 30.07 in 2.5 mi NE 9.2 mph 17.3 mph 0.14 in Rain Rain
4:56 AM 41.9 °F 35.4 °F 41.0 °F 97% 30.14 in 3.0 mi North 11.5 mph 18.4 mph 0.16 in Rain Heavy Rain
5:03 AM 42.8 °F 37.0 °F 41.0 °F 93% 30.11 in 2.5 mi North 10.4 mph 18.4 mph 0.01 in Rain Heavy Rain
5:08 AM 42.8 °F 36.6 °F 41.0 °F 93% 30.12 in 3.0 mi North 11.5 mph 17.3 mph 0.01 in Rain Light Rain
5:56 AM 41.0 °F 34.3 °F 39.9 °F 96% 30.17 in 7.0 mi North 11.5 mph - 0.01 in   Overcast
6:33 AM 41.0 °F 34.7 °F 39.2 °F 93% 30.13 in 6.0 mi NNE 10.4 mph 16.1 mph 0.00 in Rain Light Rain
6:56 AM 41.0 °F 35.2 °F 39.9 °F 96% 30.17 in 6.0 mi North 9.2 mph - 0.00 in Rain Light Rain
7:56 AM 41.0 °F 34.7 °F 39.9 °F 96% 30.20 in 6.0 mi North 10.4 mph - 0.00 in   Overcast
8:12 AM 41.0 °F 34.7 °F 39.2 °F 93% 30.16 in 6.0 mi North 10.4 mph - N/A   Overcast
8:56 AM 41.9 °F 35.9 °F 39.9 °F 93% 30.20 in 6.0 mi North 10.4 mph 17.3 mph N/A   Overcast
9:36 AM 42.8 °F 37.5 °F 39.2 °F 87% 30.19 in 7.0 mi NNE 9.2 mph - N/A   Overcast
9:56 AM 41.9 °F 35.9 °F 38.8 °F 89% 30.23 in 7.0 mi North 10.4 mph 16.1 mph N/A   Overcast
10:56 AM 43.9 °F 38.8 °F 37.9 °F 80% 30.25 in 8.0 mi North 9.2 mph - N/A   Overcast
11:13 AM 44.6 °F 38.8 °F 37.4 °F 76% 30.21 in 9.0 mi North 11.5 mph - N/A   Overcast
11:56 AM 47.8 °F - 38.8 °F 71% 30.24 in 10.0 mi North 12.7 mph 21.9 mph N/A   Mostly Cloudy
12:56 PM 48.9 °F - 37.9 °F 66% 30.24 in 10.0 mi North 13.8 mph 19.6 mph N/A   Mostly Cloudy
1:16 PM 50.0 °F - 37.4 °F 62% 30.21 in 10.0 mi North 17.3 mph 21.9 mph N/A   Overcast
1:56 PM 52.9 °F - 36.9 °F 55% 30.23 in 10.0 mi NNE 10.4 mph - N/A   Partly Cloudy
2:56 PM 54.9 °F - 34.9 °F 47% 30.22 in 10.0 mi North 13.8 mph 19.6 mph N/A   Clear
3:56 PM 54.9 °F - 32.9 °F 43% 30.20 in 10.0 mi North 12.7 mph 24.2 mph N/A   Clear
4:56 PM 54.9 °F - 32.0 °F 42% 30.20 in 10.0 mi North 9.2 mph 19.6 mph N/A   Clear
5:56 PM 52.9 °F - 30.0 °F 42% 30.21 in 10.0 mi North 11.5 mph - N/A   Clear
6:56 PM 48.9 °F - 30.0 °F 48% 30.23 in 10.0 mi North 6.9 mph - N/A   Clear
7:56 PM 45.9 °F 44.6 °F 30.0 °F 54% 30.26 in 10.0 mi North 3.5 mph - N/A   Clear
8:56 PM 43.0 °F - 30.0 °F 60% 30.28 in 10.0 mi Calm Calm - N/A   Clear
9:56 PM 41.9 °F - 28.0 °F 58% 30.29 in 10.0 mi Calm Calm - N/A   Clear
10:56 PM 38.8 °F - 28.0 °F 65% 30.30 in 10.0 mi Calm Calm - N/A   Clear
11:56 PM 37.9 °F 32.7 °F 27.1 °F 65% 30.28 in 10.0 mi NNE 6.9 mph - N/A   Clear